TimeCDT,TemperatureF,Dew PointF,Humidity,Sea Level PressureIn,VisibilityMPH,Wind Direction,Wind SpeedMPH,Gust SpeedMPH,PrecipitationIn,Events,Conditions,WindDirDegrees,DateUTC
12:53 AM,81.0,61.0,50,29.83,10.0,South,9.2,-,N/A,,Clear,190,2013-09-09 05:53:00
1:53 AM,78.1,61.0,56,29.82,10.0,SSW,9.2,-,N/A,,Clear,200,2013-09-09 06:53:00
2:53 AM,75.9,60.1,58,29.83,10.0,South,6.9,-,N/A,,Clear,180,2013-09-09 07:53:00
3:53 AM,73.9,60.1,62,29.83,10.0,South,8.1,-,N/A,,Clear,180,2013-09-09 08:53:00
4:53 AM,73.0,60.1,64,29.83,10.0,South,6.9,-,N/A,,Clear,180,2013-09-09 09:53:00
5:53 AM,75.0,59.0,57,29.84,10.0,South,9.2,-,N/A,,Clear,190,2013-09-09 10:53:00
6:53 AM,71.1,59.0,66,29.85,10.0,South,3.5,-,N/A,,Clear,180,2013-09-09 11:53:00
7:53 AM,71.1,60.1,68,29.86,10.0,South,6.9,-,N/A,,Clear,170,2013-09-09 12:53:00
8:53 AM,78.1,61.0,56,29.87,10.0,South,5.8,-,N/A,,Clear,170,2013-09-09 13:53:00
9:53 AM,84.9,62.1,46,29.87,10.0,South,11.5,-,N/A,,Clear,190,2013-09-09 14:53:00
10:53 AM,91.0,62.1,38,29.87,10.0,SSW,16.1,-,N/A,,Clear,200,2013-09-09 15:53:00
11:53 AM,93.9,61.0,33,29.86,10.0,SSW,21.9,28.8,N/A,,Clear,210,2013-09-09 16:53:00
12:53 PM,96.1,59.0,29,29.84,10.0,SSW,21.9,28.8,N/A,,Clear,210,2013-09-09 17:53:00
1:53 PM,97.0,57.0,26,29.84,10.0,South,24.2,32.2,N/A,,Clear,190,2013-09-09 18:53:00
2:53 PM,97.0,55.0,24,29.82,10.0,South,19.6,29.9,N/A,,Clear,190,2013-09-09 19:53:00
3:53 PM,97.0,55.0,24,29.81,10.0,South,18.4,33.4,N/A,,Clear,190,2013-09-09 20:53:00
4:53 PM,96.1,55.9,26,29.81,10.0,South,21.9,32.2,N/A,,Partly Cloudy,180,2013-09-09 21:53:00
5:53 PM,96.1,54.0,24,29.80,10.0,South,20.7,31.1,N/A,,Clear,190,2013-09-09 22:53:00
6:53 PM,93.0,55.0,28,29.81,10.0,South,12.7,21.9,N/A,,Clear,180,2013-09-09 23:53:00
7:53 PM,87.1,55.0,33,29.82,10.0,South,10.4,-,N/A,,Clear,180,2013-09-10 00:53:00
8:53 PM,84.0,54.0,35,29.83,10.0,SSE,12.7,-,N/A,,Clear,160,2013-09-10 01:53:00
9:53 PM,81.0,54.0,39,29.85,10.0,SSE,11.5,-,N/A,,Clear,160,2013-09-10 02:53:00
10:53 PM,79.0,55.9,45,29.86,10.0,SSE,11.5,-,N/A,,Clear,160,2013-09-10 03:53:00
11:53 PM,80.1,59.0,48,29.87,10.0,South,11.5,-,N/A,,Clear,180,2013-09-10 04:53:00